DateTimeUTC,F1_A11,F1_S11,BsB_S11,BsG_S11,BsR_S11,BbsB_S11,BbsG_S11,BbsR_S11,BaB_A11,BaG_A11,BaR_A11,Tu_S11,T_S11,Uu_S11,U_S11,P_S11,T1_A11
2021-02-10T11:00:00Z,00000200,21000000,,,,,,,0000.25,0000.01,-000.04,16.0,23.4,,00.0,0643.1,31.0
2021-02-10T11:01:00Z,00000200,21000000,,,,,,,-000.17,0000.11,0000.28,16.0,23.4,,00.0,0643.1,31.0
2021-02-10T11:02:00Z,00000200,21000000,,,,,,,-000.14,-000.15,-000.25,15.9,23.4,,00.0,0643.1,31.0
2021-02-10T11:03:00Z,00000200,61000000,,,,,,,0000.41,0000.04,0000.02,15.9,23.4,,00.0,0643.1,30.9
2021-02-10T11:04:00Z,00000200,41000000,0000.79,0000.20,0000.05,0000.22,0000.29,-000.05,-000.24,-000.16,-000.15,16.0,23.2,,00.0,0644.1,30.9
2021-02-10T11:05:00Z,00000200,01000000,0001.42,0000.20,-000.00,0000.41,0000.28,-000.01,0000.02,0000.02,0000.24,16.1,23.1,,00.0,0644.2,30.9
2021-02-10T11:06:00Z,00000200,01000000,0000.82,0000.05,-000.29,0000.47,0000.34,-000.13,0000.22,-000.04,0000.16,16.0,23.1,,00.0,0644.2,30.9
2021-02-10T11:07:00Z,00000200,01000000,0000.61,0000.01,-000.19,0000.38,0000.19,-000.02,0000.28,0000.11,-000.04,16.1,23.1,,00.0,0644.2,30.9
2021-02-10T11:08:00Z,00000200,01000000,-000.04,0000.07,0000.07,-000.07,0000.08,0000.10,-000.12,0000.02,-000.06,16.1,23.1,,00.0,0644.2,30.9
2021-02-10T11:09:00Z,00000200,01000000,0000.83,0000.31,0000.09,0000.17,-000.01,0000.17,0000.04,-000.05,0000.22,16.2,23.1,,00.0,0644.2,31.0
2021-02-10T11:10:00Z,00000200,01000000,0000.51,0000.14,-000.06,-000.17,0000.19,-000.06,-000.17,0000.34,-000.00,16.3,23.2,,00.0,0644.2,31.0
2021-02-10T11:11:00Z,00000200,01000000,-000.43,0000.12,0000.18,0000.20,0000.15,0000.15,0000.20,0000.17,0000.09,16.4,23.2,,00.0,0644.2,31.0
2021-02-10T11:12:00Z,00000200,01000000,0000.64,0000.58,-000.09,-000.18,0000.03,-000.15,-000.06,-000.12,-000.32,16.4,23.2,,00.0,0644.2,31.0
2021-02-10T11:13:00Z,00000200,01000000,0000.49,0000.22,0000.08,0000.32,0000.24,0000.05,-000.10,0000.11,0000.08,16.4,23.2,,00.0,0644.2,31.0
2021-02-10T11:14:00Z,00000200,01000000,0000.61,0000.16,0000.25,0000.10,0000.13,0000.08,-000.13,-000.23,-000.01,16.4,23.2,,00.0,0644.3,31.0
2021-02-10T11:15:00Z,00000200,01000000,0000.45,0000.25,0000.04,0000.09,0000.13,-000.08,0000.02,-000.21,-000.40,16.3,23.2,,00.0,0644.3,31.0
2021-02-10T11:16:00Z,00000200,01000000,0000.61,-000.02,0000.27,0000.04,0000.15,0000.06,-000.32,0000.07,0000.13,16.3,23.2,,00.0,0644.3,31.0
2021-02-10T11:17:00Z,00000200,01000000,0000.66,0000.13,-000.26,0000.18,0000.09,0000.11,0000.35,-000.20,0000.01,16.2,23.2,,00.0,0644.3,31.0
2021-02-10T11:18:00Z,00000200,01000000,0000.64,0000.08,-000.14,-000.18,0000.25,-000.14,0000.01,0000.19,-000.28,16.2,23.1,,00.0,0644.3,30.9
2021-02-10T11:19:00Z,00000200,01000000,0000.21,0000.30,0000.01,0000.38,0000.13,0000.31,-000.03,0000.24,0000.20,16.1,23.1,,00.0,0644.2,30.9
2021-02-10T11:20:00Z,00000200,01000000,0000.27,0000.35,0000.11,0000.09,-000.18,0000.28,0000.07,-000.09,-000.10,16.1,23.1,,00.0,0644.2,30.9
2021-02-10T11:21:00Z,00000200,01000000,0000.64,0000.08,-000.25,0000.12,0000.30,0000.16,0000.50,-000.19,0000.53,16.1,23.1,,00.0,0644.1,30.9
2021-02-10T11:22:00Z,00000200,01000000,0000.16,0000.08,-000.16,0000.60,-000.03,-000.12,0000.50,0000.87,0000.09,16.1,23.0,,00.0,0644.0,30.9
2021-02-10T11:23:00Z,00000200,01000000,0000.06,-000.03,0000.00,0000.08,0000.29,-000.07,0000.30,0000.25,0000.35,16.2,23.1,,00.0,0643.9,30.9
2021-02-10T11:24:00Z,00000200,01000000,0000.46,0000.04,-000.19,0000.03,0000.12,-000.36,-000.16,0000.59,0000.43,16.2,23.1,,00.0,0643.8,31.0
2021-02-10T11:25:00Z,00000200,01000000,-000.06,-000.17,-000.36,-000.08,0000.06,0000.02,0000.46,0000.07,0000.30,16.3,23.2,,00.0,0643.7,31.0
2021-02-10T11:26:00Z,00000200,01000000,0000.83,0000.07,-000.08,0000.47,0000.14,-000.34,0000.40,0000.40,0000.11,16.3,23.2,,00.0,0643.7,31.0
2021-02-10T11:27:00Z,00000200,01000000,0000.48,-000.14,-000.17,-000.00,0000.34,0000.06,0000.20,0000.05,0000.06,16.3,23.2,,00.0,0643.6,30.9
2021-02-10T11:28:00Z,00000200,01000000,-000.52,-000.37,-000.33,0000.72,0000.34,-000.12,0000.02,-000.04,0000.06,16.3,23.1,,00.0,0643.6,30.9
2021-02-10T11:29:00Z,00000200,01000000,0000.57,0000.21,-000.11,0000.80,0000.10,-000.16,0000.41,0000.03,0000.04,16.2,23.1,,00.0,0643.6,30.9
2021-02-10T11:30:00Z,00000200,01000000,0000.09,0000.04,0000.02,0000.12,0000.06,0000.04,-000.13,0000.14,0000.41,16.2,23.1,,00.0,0643.5,30.9
2021-02-10T11:31:00Z,00000200,01000000,-000.44,-000.14,-000.09,0000.56,0000.11,-000.20,0000.21,0000.40,-000.22,16.1,23.0,,00.0,0643.5,30.9
2021-02-10T11:32:00Z,00000200,01000000,0000.06,0000.19,0000.05,-000.30,0000.31,-000.09,-000.04,-000.26,0000.01,16.1,23.1,,00.0,0643.5,30.9
2021-02-10T11:33:00Z,00000200,01000000,0000.42,-000.15,-000.13,0000.20,0000.24,0000.10,0000.09,0000.09,-000.05,16.1,23.1,,00.0,0643.5,30.9
2021-02-10T11:34:00Z,00000200,01000000,-000.16,-000.23,-000.14,0000.39,0000.14,-000.18,0000.23,-000.08,0000.31,16.0,23.0,,00.0,0643.4,30.9
2021-02-10T11:35:00Z,00000200,01000000,-000.42,-000.06,-000.09,-000.16,0000.20,-000.06,-000.01,-000.14,-000.08,16.0,23.0,,00.0,0643.3,30.9
2021-02-10T11:36:00Z,00000200,01000000,-000.04,-000.31,-000.26,0000.05,0000.16,-000.08,0000.58,0000.62,0000.42,16.0,23.0,,00.0,0643.3,30.9
2021-02-10T11:37:00Z,00000200,01000000,0000.46,-000.23,-000.10,-000.07,0000.11,0000.07,-000.02,-000.08,0000.25,16.0,23.0,,00.0,0643.3,30.9
2021-02-10T11:38:00Z,00000200,01000000,-000.59,-000.12,-000.10,0000.02,0000.28,-000.23,0000.17,0000.13,-000.15,16.1,23.0,,00.0,0643.2,30.9
2021-02-10T11:39:00Z,00000200,01000000,-000.01,-000.18,0000.02,-000.09,0000.04,-000.06,-000.02,0000.33,0000.29,16.1,23.0,,00.0,0643.2,30.9
2021-02-10T11:40:00Z,00000200,01000000,-000.47,0000.29,-000.13,-000.01,0000.28,0000.02,0000.41,0000.05,-000.35,16.2,23.1,,00.0,0643.2,31.0
2021-02-10T11:41:00Z,00000200,01000000,0000.48,0000.02,-000.46,0000.57,0000.05,-000.33,0000.00,0000.06,0000.44,16.2,23.1,,00.0,0643.1,31.0
2021-02-10T11:42:00Z,00000200,01000000,0000.64,0000.11,-000.29,0000.18,-000.04,-000.03,-000.29,0000.21,0000.01,16.2,23.1,,00.0,0643.1,31.0
2021-02-10T11:43:00Z,00000200,01000000,0001.19,0000.19,-000.24,0000.30,-000.19,-000.34,0000.16,0000.09,-000.01,16.2,23.1,,00.0,0643.1,31.0
2021-02-10T11:44:00Z,00000200,01000000,0000.77,-000.04,-000.06,0000.16,0000.29,0000.13,0000.24,0000.11,-000.01,16.2,23.0,,00.0,0643.0,30.9
2021-02-10T11:45:00Z,00000200,01000000,0000.68,-000.41,0000.10,0000.01,0000.18,-000.10,0000.29,0000.20,-000.07,16.2,23.0,,00.0,0643.0,30.9
2021-02-10T11:46:00Z,00000200,01000000,0000.59,0000.02,0000.14,0000.32,0000.14,0000.09,0000.03,0000.30,0000.42,16.1,23.0,,00.0,0643.0,30.9
2021-02-10T11:47:00Z,00000200,01000000,-000.07,0000.01,-000.21,-000.17,0000.39,0000.22,0000.25,0000.25,0000.24,16.1,23.0,,00.0,0643.0,30.9
2021-02-10T11:48:00Z,00000200,01000000,-000.06,-000.10,-000.28,0000.35,-000.11,-000.19,0000.30,0000.06,0000.05,16.0,23.0,,00.0,0642.9,30.9
2021-02-10T11:49:00Z,00000200,01000000,0000.04,-000.03,0000.14,-000.07,0000.16,-000.10,0000.11,-000.07,-000.12,16.0,23.0,,00.0,0642.9,30.9
2021-02-10T11:50:00Z,00000200,01000000,0000.57,-000.14,-000.11,0000.16,0000.03,0000.07,-000.02,-000.17,0000.05,16.0,22.9,,00.0,0642.9,30.9
2021-02-10T11:51:00Z,00000200,01000000,-000.05,-000.09,-000.04,-000.04,0000.13,0000.08,0000.42,0000.53,0000.31,15.9,22.9,,00.0,0642.9,30.9
2021-02-10T11:52:00Z,00000200,01000000,0000.12,0000.13,-000.02,0000.10,0000.16,-000.24,0000.00,0000.07,0000.31,16.0,22.9,,00.0,0642.9,30.9
2021-02-10T11:53:00Z,00000200,01000000,0000.24,-000.24,-000.11,0000.10,0000.36,-000.17,0000.34,0000.03,-000.14,16.0,22.9,,00.0,0642.9,30.9
2021-02-10T11:54:00Z,00000200,01000000,0001.46,0000.19,-000.15,-000.35,0000.03,0000.19,0000.30,0000.55,0000.38,16.1,23.0,,00.0,0642.9,30.9
2021-02-10T11:55:00Z,00000200,01000000,0000.36,0000.12,-000.12,-000.19,0000.11,-000.04,-000.07,0000.02,0000.20,16.2,23.0,,00.0,0642.9,31.0
2021-02-10T11:56:00Z,00000200,01000000,0000.34,0000.21,0000.04,-000.30,0000.22,0000.07,0000.32,0000.27,-000.10,16.3,23.1,,00.0,0642.8,31.0
2021-02-10T11:57:00Z,00000200,41000000,,,,,,,-000.62,-000.48,-000.30,16.4,23.1,,00.0,0642.8,31.0
2021-02-10T11:58:00Z,00000200,61000000,,,,,,,0000.04,0000.16,-000.04,16.0,23.2,,00.0,0641.9,31.0
2021-02-10T11:59:00Z,00000200,21000000,,,,,,,-000.03,0000.19,0000.22,16.0,23.3,,00.0,0641.9,31.0
